Location: Ottawa
(45.4170°N, 75.7000°W)
Time: 21:48:23
(UTC-04:00)

ISS - Pass Details

Date: 18 May 2021
Orbit: 417 x 422 km, 51.6° (Epoch: 13 June)

Event Time Altitude Azimuth Distance (km) Brightness Sun altitude
Rises 21:27:56 0° 247° (WSW) 2,355 0.4 -9.1°
Reaches altitude 10° 21:30:02 10° 250° (WSW) 1,495 -0.5 -9.4°
Maximum altitude 21:33:23 67° 334° (NNW) 458 -3.3 -9.8°
Drops below altitude 10° 21:36:45 10° 58° (ENE) 1,504 -1.1 -10.2°
Sets 21:38:52 0° 61° (ENE) 2,371 -0.1 -10.5°
